Theta_e
307 298 295 296 295 299 301 301 301 302 303 303 303 305 314 315 317 324 328 330 331 324 322 322 324 326 329 331 333 335 335 334 332 331 331 333 332 329 329 328 329 328 330 332 335 333 335 336 338 340 340 339 341 344 346 345 346 348 349 349 347 350 352 352 351 348 348 347 346 346 347 347 350 351 353 354 354 356 360 364 364 364 363 363 364 362
306 297 296 298 300 300 301 302 302 301 302 301 300 301 305 316 314 325 326 329 329 322 319 323 324 325 328 331 333 335 333 331 332 331 332 332 332 330 327 327 328 329 331 332 332 332 334 335 338 338 338 340 340 343 344 344 346 347 348 348 348 351 351 351 350 349 348 349 346 345 345 348 349 352 351 351 353 356 362 363 363 364 364 363 362 363
298 295 299 301 303 302 302 301 301 301 300 301 299 299 307 313 322 327 327 329 327 323 317 324 321 323 327 330 333 333 333 333 335 335 332 332 331 330 327 327 328 328 328 330 331 331 333 335 336 336 336 339 342 342 343 344 345 346 347 348 350 350 350 351 353 349 348 351 352 348 348 349 350 354 354 352 356 360 361 362 363 364 363 363 362 363
295 297 302 304 303 301 301 301 300 299 300 297 297 301 309 318 317 312 324 326 325 322 319 322 320 321 326 330 332 333 334 335 337 336 335 335 332 330 330 328 328 327 327 328 328 330 332 334 334 334 335 338 342 342 342 344 345 346 348 349 350 350 350 351 355 353 350 352 352 350 350 351 352 351 356 355 356 359 359 359 362 362 362 363 362 362
296 301 306 305 303 301 299 300 298 296 293 298 299 302 315 318 318 319 320 324 324 325 326 321 317 316 322 322 325 331 336 335 338 337 336 339 337 339 339 338 331 328 327 327 328 329 332 332 333 333 335 338 340 341 341 344 345 346 347 349 350 350 350 351 357 354 351 353 351 349 350 353 352 353 352 350 353 356 358 358 358 361 362 363 361 362
299 305 305 303 303 302 299 298 298 297 293 295 299 310 319 320 318 320 322 319 315 315 321 318 305 306 317 323 325 329 331 331 336 333 333 333 337 337 336 336 341 333 329 328 328 329 332 332 333 334 336 337 339 340 341 344 345 346 347 349 350 350 350 350 353 354 352 351 347 346 345 344 344 344 345 346 349 352 355 355 358 362 362 363 361 361
300 306 304 302 302 301 300 299 300 299 294 293 295 313 320 318 318 320 319 317 309 307 317 321 306 303 316 318 323 328 328 328 334 333 335 336 334 333 334 336 338 336 329 329 330 330 331 332 333 334 335 336 337 339 341 343 344 346 347 348 349 350 350 351 351 352 354 347 347 346 345 345 344 343 344 347 351 353 355 356 357 360 361 362 361 360
303 302 302 303 301 300 298 296 301 300 295 293 298 316 319 318 317 318 318 317 313 319 320 320 313 307 307 315 322 327 326 327 329 331 333 334 334 334 334 337 337 339 330 329 329 330 332 333 333 334 335 336 337 339 340 341 344 344 346 348 348 350 352 351 351 350 353 348 348 345 344 345 344 344 344 347 349 353 355 354 356 357 359 359 360 360
301 300 300 300 300 298 296 299 302 301 297 295 301 312 318 319 319 319 317 312 313 314 309 314 316 306 305 314 322 324 321 324 325 328 331 334 335 336 337 338 337 339 334 330 330 330 331 333 334 335 335 336 338 338 338 339 344 344 347 348 348 349 351 350 349 350 353 351 349 347 346 346 347 346 347 350 351 352 354 351 353 354 356 356 358 360
303 303 302 302 300 297 300 302 302 302 298 302 304 307 317 321 321 319 315 312 311 307 302 309 313 303 300 310 315 321 321 321 323 328 331 334 334 335 337 338 339 338 339 334 332 331 332 334 335 336 337 337 337 338 340 340 345 344 346 348 347 347 350 350 347 352 352 351 352 347 346 346 348 351 350 349 349 348 350 349 351 352 353 354 357 358
306 310 310 303 301 303 303 302 303 303 303 303 305 303 303 317 317 317 315 311 305 300 303 311 313 308 298 310 314 315 318 322 324 327 332 334 335 337 338 337 339 338 339 339 333 332 332 334 336 336 336 337 338 338 339 341 345 344 345 349 346 346 349 349 347 352 351 351 350 349 347 346 347 348 348 345 346 348 348 347 349 350 352 354 356 357
302 304 304 304 309 306 305 303 305 304 304 303 302 299 298 303 315 309 308 308 298 294 304 312 312 312 300 304 314 322 324 326 326 325 328 332 333 334 337 338 338 338 339 342 335 331 333 333 335 336 336 337 337 339 338 342 345 345 344 348 346 346 347 348 348 352 351 351 350 349 350 347 348 348 347 344 344 349 348 348 349 351 352 353 356 358
298 299 301 305 314 306 302 300 300 302 302 303 300 298 292 292 302 298 298 296 295 293 301 310 313 307 302 308 317 321 323 327 329 328 329 332 335 336 338 337 337 341 343 343 338 332 333 332 334 334 335 337 337 338 338 341 345 345 344 346 347 346 347 349 348 351 351 350 351 349 351 350 348 350 347 345 344 349 349 350 351 351 352 353 354 356
293 301 302 304 306 309 304 296 295 296 298 300 298 294 291 288 291 288 291 293 295 301 308 310 314 305 307 312 319 321 323 328 330 331 332 333 334 336 338 339 339 342 342 343 342 335 334 332 334 335 335 337 338 338 339 340 345 345 344 346 346 347 348 349 348 351 351 349 351 350 349 352 352 351 348 347 346 351 350 353 352 352 353 354 353 355
290 291 296 302 297 307 304 300 297 297 300 297 299 300 295 291 290 286 288 289 291 294 306 312 306 300 304 306 321 324 324 327 331 332 334 335 336 336 339 340 342 341 342 343 343 342 340 335 334 335 335 337 338 338 340 341 344 345 344 346 346 347 350 349 348 351 351 350 351 351 349 350 354 352 350 349 350 351 350 353 353 352 354 355 354 355
294 292 297 305 305 305 304 306 306 302 299 299 301 301 297 297 296 290 291 291 294 297 302 304 304 308 308 319 323 326 327 327 330 331 333 333 334 336 336 337 338 340 342 344 344 346 346 345 344 338 336 340 340 340 342 343 345 345 344 346 346 346 350 350 348 350 351 352 352 352 350 350 354 357 353 353 356 353 352 353 354 353 354 354 354 357
294 290 301 303 306 305 305 307 308 304 294 298 301 296 297 302 301 296 300 299 299 300 299 307 306 310 315 316 320 326 325 325 328 330 330 330 332 333 333 335 336 339 341 340 340 341 341 338 341 342 344 343 340 340 342 344 346 346 345 346 347 346 350 352 350 350 352 352 352 352 352 351 352 355 354 353 355 353 354 354 354 354 354 356 355 357
290 291 299 301 302 305 308 306 306 306 303 301 297 297 302 306 303 295 290 292 289 290 298 304 302 304 305 301 316 321 324 326 327 328 330 330 332 333 334 335 337 339 340 342 340 342 342 342 343 345 345 345 346 341 341 344 346 348 347 347 348 347 348 352 351 351 352 352 352 352 352 352 352 354 354 354 355 355 354 354 353 353 354 353 355 358
297 288 293 301 302 305 309 305 304 306 308 301 299 305 303 294 295 295 294 289 288 293 296 300 303 304 304 304 314 318 321 323 325 326 325 325 328 332 334 334 336 336 336 338 341 342 343 343 342 342 343 346 346 348 344 345 347 349 349 349 350 349 349 352 353 352 353 353 353 354 353 353 352 353 353 354 355 356 354 353 353 352 353 354 354 356
298 290 292 301 301 303 301 300 293 298 303 307 306 299 302 297 294 294 293 293 295 292 296 298 301 299 308 309 315 317 318 320 320 319 320 324 329 331 331 332 331 332 333 336 340 341 344 344 344 344 344 345 346 347 347 347 347 349 351 351 351 352 351 353 354 354 353 354 353 354 354 354 354 354 353 352 352 353 353 353 353 353 352 351 354 354
294 300 290 297 303 303 296 295 293 296 296 299 297 296 299 299 299 296 299 295 293 295 296 296 293 298 308 315 315 316 319 320 321 318 320 323 325 326 328 330 332 333 334 337 340 341 343 345 346 345 346 346 347 350 349 348 349 351 354 353 353 352 351 353 355 356 354 355 355 355 354 354 354 354 353 352 352 352 352 352 353 353 352 352 350 351
295 294 292 294 294 293 295 298 299 300 298 298 297 295 294 296 294 291 289 297 301 298 293 296 291 301 313 321 318 318 320 321 320 320 320 321 322 324 325 325 326 327 331 340 341 342 341 344 345 346 347 348 349 349 348 350 349 349 351 353 353 352 353 353 354 354 351 347 343 343 344 346 348 350 353 352 351 352 351 352 352 352 351 351 351 350
301 301 299 293 294 295 297 301 303 303 301 300 300 298 301 295 294 290 287 291 304 304 307 302 298 300 315 320 321 320 321 321 321 321 320 321 322 323 325 325 325 325 326 329 334 339 341 342 342 344 346 346 347 347 348 350 348 349 349 349 350 349 349 350 346 347 347 349 348 347 347 346 345 345 346 348 347 347 350 351 352 352 351 350 350 350
311 296 294 295 296 299 299 302 304 303 300 297 296 298 297 295 297 293 292 295 300 304 301 298 298 303 315 321 322 321 321 321 322 321 320 320 321 322 322 323 323 323 324 326 329 332 336 341 341 342 343 343 344 345 346 350 350 350 350 347 348 348 348 350 349 349 347 348 349 351 349 348 349 349 348 348 347 346 345 345 346 352 351 351 350 350
295 296 294 289 288 291 292 296 299 302 299 296 296 296 299 299 299 299 301 302 301 302 303 298 295 302 313 319 320 320 320 320 320 320 320 318 320 321 321 321 322 323 323 323 324 326 329 333 336 337 340 340 342 347 346 346 348 348 349 349 348 347 350 349 348 349 347 347 348 350 349 348 350 348 349 349 351 350 349 346 345 346 347 349 349 350
298 299 297 289 285 283 284 284 288 293 294 298 299 297 298 298 298 297 295 298 291 301 304 301 301 309 316 318 317 318 318 318 320 319 320 320 320 320 320 320 321 322 321 321 322 323 325 326 327 328 332 336 339 339 339 339 341 342 345 347 348 349 349 347 350 350 348 348 347 346 347 348 349 349 348 350 351 351 352 349 347 346 347 349 349 347
299 302 301 296 291 287 288 290 296 305 295 292 295 296 296 298 302 301 298 296 293 299 300 302 306 307 310 314 314 315 316 316 316 317 317 318 319 320 320 320 320 320 320 319 319 321 323 324 325 327 328 329 332 338 339 340 340 340 340 343 345 348 348 348 348 349 349 346 346 346 346 348 349 350 351 352 351 352 352 351 350 349 347 349 352 349
299 295 298 299 300 298 297 297 299 300 295 295 295 295 297 297 299 302 298 298 304 302 292 302 309 307 309 313 314 314 315 316 317 317 317 318 318 318 319 320 321 319 318 318 318 318 319 321 323 325 326 328 329 329 330 333 336 338 339 341 343 345 347 351 350 349 350 348 346 345 345 347 350 351 351 351 351 350 351 352 352 351 349 351 352 352
295 293 299 298 296 297 297 297 297 299 296 295 295 297 298 297 297 299 305 308 306 300 298 306 309 308 310 313 314 315 316 316 317 317 318 319 318 318 317 317 317 316 317 316 316 317 318 319 320 321 324 326 327 327 328 329 329 332 336 339 343 347 348 350 348 347 348 349 348 348 349 350 350 351 352 351 349 348 349 351 350 351 353 354 354 356
295 295 301 299 295 296 297 297 297 296 295 296 298 299 300 299 297 300 302 309 305 302 308 309 309 309 312 313 315 317 318 319 318 319 319 318 317 317 316 315 315 315 315 315 315 316 317 318 319 321 322 324 325 325 327 327 328 331 334 339 344 345 347 348 346 345 346 346 346 347 347 348 351 351 349 348 347 346 347 349 353 354 354 354 355 353
294 293 304 298 293 295 297 299 297 295 295 294 298 299 300 299 299 310 311 310 310 309 310 309 307 306 311 317 315 318 318 318 317 317 317 317 317 316 314 314 314 314 314 314 315 314 315 316 317 318 320 322 324 326 327 329 330 333 335 337 339 340 342 344 343 344 345 345 347 348 348 348 348 347 347 349 350 350 351 352 354 354 353 351 351 350
298 293 299 297 291 292 296 296 296 296 296 296 296 298 298 298 295 297 307 310 308 305 307 307 304 304 311 315 317 316 315 314 314 314 314 313 313 313 313 313 313 314 314 314 314 314 314 315 316 316 316 318 321 324 326 326 328 330 332 333 334 336 337 339 338 338 338 340 342 345 346 346 346 345 346 346 345 346 347 350 350 349 349 349 351 351
297 293 291 292 288 290 294 296 296 295 291 290 293 297 299 302 302 300 308 314 312 311 306 304 305 311 312 315 313 313 314 312 310 310 310 310 311 311 311 311 311 312 313 314 315 316 316 315 316 315 315 317 319 321 324 325 325 326 331 332 331 331 331 331 332 333 333 336 338 341 342 344 346 346 345 346 345 345 347 347 349 349 351 352 353 354
299 294 291 294 287 289 294 294 296 289 283 287 299 302 304 304 304 307 307 310 311 312 309 311 311 313 314 312 310 310 310 309 309 310 312 311 310 310 311 311 312 313 314 315 315 316 316 316 315 316 317 317 318 320 323 323 321 323 329 334 331 328 328 327 327 327 328 331 334 335 338 341 344 344 343 346 346 346 346 346 345 347 349 352 352 351
295 294 292 294 287 287 290 292 289 283 286 300 303 304 305 307 310 309 309 311 311 311 311 310 311 311 310 309 309 309 309 310 311 311 311 312 312 311 310 310 310 312 313 313 314 316 318 319 317 317 317 319 321 319 319 320 322 324 325 329 330 330 328 327 326 326 326 327 329 333 334 336 337 340 342 344 345 345 345 345 346 348 350 352 352 351
292 291 293 291 291 288 285 283 278 284 297 303 303 305 309 305 304 309 307 309 311 311 310 308 309 309 310 310 310 311 310 310 311 311 311 312 313 312 311 310 311 312 312 312 312 313 315 317 317 318 320 325 320 320 320 319 319 319 323 330 331 330 331 331 330 330 330 329 330 330 332 334 335 337 339 342 344 343 343 344 345 344 346 348 349 351
296 293 292 288 292 284 286 283 284 292 294 297 299 301 301 299 300 302 299 303 310 311 311 309 309 310 311 312 313 313 312 311 307 307 310 311 311 312 312 311 311 311 311 312 312 312 314 317 318 319 316 315 317 321 321 321 320 319 319 319 320 321 321 321 323 325 326 325 327 333 334 336 335 335 335 337 337 339 339 340 339 340 344 344 343 342
294 291 293 286 289 289 284 280 280 282 281 289 298 303 304 307 307 306 303 301 308 312 314 310 309 310 311 312 313 315 313 307 303 303 308 310 311 311 312 312 311 311 311 311 310 311 311 312 312 315 313 314 316 318 321 321 320 319 319 319 319 320 320 319 318 319 321 320 321 322 323 329 331 333 335 333 333 336 338 338 340 339 341 344 342 341
298 295 292 289 289 286 285 281 280 281 284 291 297 302 301 300 308 307 300 296 305 311 313 313 311 311 311 311 311 312 309 304 304 304 308 309 309 310 309 308 308 308 308 308 309 309 310 312 313 313 313 313 314 317 319 321 320 319 319 319 318 319 319 320 322 322 321 321 320 321 322 322 325 327 330 331 332 335 337 336 336 339 341 343 343 342
293 290 284 282 284 289 286 282 280 288 289 297 300 300 300 301 307 299 288 289 300 308 312 312 311 311 311 312 312 310 306 302 303 304 309 309 308 307 306 305 306 307 309 309 310 310 311 312 311 310 310 311 312 316 317 317 318 322 318 317 318 318 318 319 321 322 323 322 322 322 323 323 325 326 325 324 325 328 332 338 338 335 337 339 341 341
290 289 287 284 283 287 290 283 285 290 299 303 300 301 298 305 298 288 283 291 303 306 310 313 314 314 313 311 310 306 308 308 307 307 307 307 306 306 306 307 308 309 309 311 313 317 309 309 310 310 311 311 312 313 316 318 318 317 319 317 316 317 318 318 320 322 321 321 322 323 324 324 324 325 324 322 323 326 328 329 332 335 336 337 337 339
285 289 292 288 286 283 282 282 282 285 295 302 301 303 301 299 287 282 292 304 305 304 309 312 312 313 312 310 308 306 308 308 308 307 306 306 305 305 307 309 311 312 314 318 318 314 310 310 310 311 312 313 314 316 316 318 318 317 315 315 315 317 318 320 319 319 319 321 322 324 324 323 325 326 324 324 324 321 321 323 326 331 335 338 338 337
287 285 281 285 286 286 285 284 282 279 294 304 301 299 299 290 287 295 303 303 306 304 310 312 313 312 310 306 307 306 306 306 306 305 306 306 306 306 307 307 307 308 308 309 311 315 312 310 310 311 311 313 314 314 315 318 317 316 314 313 314 317 318 320 318 318 318 320 321 321 321 322 323 324 323 324 324 321 321 321 322 323 327 329 333 335
292 284 282 285 291 281 281 281 281 288 298 303 300 291 298 302 302 305 301 300 302 303 306 308 309 309 307 305 304 304 304 304 304 305 306 306 307 307 307 308 308 308 309 310 312 312 315 310 310 310 311 312 313 313 313 314 316 316 314 311 315 316 318 317 318 318 319 321 320 320 321 322 323 322 322 323 323 323 321 321 322 323 325 325 326 327
293 289 288 286 292 289 286 287 292 296 299 304 304 302 304 307 307 306 304 302 301 302 303 304 304 305 305 305 304 304 303 304 305 306 306 306 307 307 307 307 308 308 308 309 310 313 311 309 309 309 309 310 311 312 313 312 314 314 311 311 316 316 314 316 318 318 319 318 318 319 319 319 319 320 321 321 321 321 322 321 322 322 323 325 324 324
300 300 298 294 292 296 296 299 301 301 302 304 307 307 304 304 307 305 304 302 303 303 304 303 304 305 305 305 304 303 303 304 305 306 306 306 307 307 308 307 307 307 308 308 308 310 309 309 309 309 309 309 310 311 314 312 312 312 311 313 316 315 313 316 317 318 317 315 315 315 316 317 318 319 320 320 320 321 321 321 323 322 322 323 323 323
300 300 296 292 296 290 285 296 299 299 302 304 304 304 304 304 305 306 304 304 304 304 304 305 306 305 304 304 304 302 302 304 305 305 307 307 306 306 306 306 305 306 306 307 309 311 308 308 308 309 310 309 309 309 312 310 312 313 313 315 314 315 314 316 318 317 314 312 313 314 315 315 317 317 315 315 316 318 320 319 319 319 320 318 316 316
293 302 295 298 296 291 291 297 301 303 304 305 303 302 301 302 304 306 306 307 306 305 304 305 306 306 306 305 305 305 304 305 305 305 305 306 306 306 306 305 305 305 306 307 309 308 307 306 306 307 309 308 308 309 311 311 310 311 311 311 313 312 313 316 317 314 311 311 312 313 315 316 321 318 314 315 316 316 316 317 319 319 318 318 317 317
298 303 292 296 293 294 297 300 301 301 302 303 305 305 305 305 302 304 305 306 305 305 304 305 305 305 305 305 306 305 304 304 305 305 306 306 306 305 305 305 305 304 305 306 307 308 305 306 307 307 309 309 308 308 308 308 309 310 309 310 311 310 311 313 314 314 311 311 311 311 317 317 315 314 314 314 314 315 315 316 317 317 317 318 321 322
299 293 296 296 292 290 293 293 300 294 292 299 302 305 305 306 306 303 304 304 305 304 304 304 304 305 305 305 305 305 303 303 304 306 305 305 304 304 304 305 304 304 304 306 308 306 307 308 306 307 308 306 306 307 308 307 307 308 309 309 310 310 311 313 314 312 310 311 311 312 313 315 313 312 315 313 312 313 314 320 314 313 316 316 322 317
296 295 294 291 290 289 295 300 299 298 298 300 304 305 306 307 306 305 303 302 304 305 304 303 302 303 303 304 306 305 304 304 304 305 304 303 303 304 305 304 303 304 305 306 304 304 304 305 310 309 307 306 308 308 308 308 307 307 309 309 309 310 309 309 312 312 310 312 310 313 315 314 312 312 312 312 312 312 313 313 314 306 306 309 313 309
Wind_Speed
2 3 5 8 7 7 7 6 7 9 6 5 6 2 8 6 4 4 5 11 11 7 5 7 6 8 9 10 10 9 10 8 9 10 8 7 6 9 10 10 12 10 11 11 13 11 13 14 13 12 12 10 10 12 12 11 10 11 10 9 8 6 6 6 6 6 6 5 4 3 5 5 4 5 5 5 5 5 5 4 4 4 3 3 2 2
2 3 7 6 8 7 7 6 7 9 4 4 4 4 5 10 9 11 12 13 10 6 4 2 8 7 9 8 6 6 11 11 11 9 7 7 6 9 10 11 12 10 7 12 10 10 13 13 14 12 11 10 12 11 13 12 11 10 11 10 8 6 7 6 6 6 6 4 5 4 5 4 4 5 5 4 5 5 4 5 5 4 3 3 2 2
3 7 7 8 8 6 7 6 7 8 5 4 7 4 2 5 8 7 9 10 8 4 4 7 8 4 6 7 7 6 6 6 4 3 1 3 7 5 10 12 11 8 10 13 10 11 13 15 16 12 10 11 14 14 13 12 11 10 10 9 8 7 7 6 5 5 5 3 4 4 3 5 3 2 4 4 4 5 5 5 5 4 4 3 2 2
5 6 10 8 6 7 8 8 8 5 4 6 4 2 4 12 13 5 9 12 5 1 7 7 9 3 2 3 7 4 3 5 5 3 3 7 5 7 9 13 11 10 12 14 10 13 14 15 14 12 11 10 11 12 11 11 12 10 9 9 9 8 7 6 4 5 4 5 5 4 6 5 6 4 3 3 3 4 4 4 4 3 4 3 3 2
7 7 10 9 7 8 9 9 8 6 6 6 5 3 7 13 13 19 12 11 9 6 6 11 7 2 0 2 3 4 5 2 3 6 3 3 6 6 1 2 7 12 12 14 10 13 14 14 14 14 12 11 12 12 12 11 10 8 11 10 10 8 8 6 5 5 4 5 4 4 4 3 3 3 4 4 2 4 4 4 3 4 3 3 3 3
8 13 4 9 10 7 7 9 10 7 7 5 6 8 14 11 6 4 16 14 4 5 6 12 5 2 2 4 6 6 5 6 3 5 7 6 3 6 4 4 2 5 11 14 11 15 15 15 13 12 13 13 12 12 12 11 10 10 9 9 9 8 8 8 6 6 5 5 6 6 7 6 5 5 5 6 6 5 5 6 4 3 4 4 3 3
8 11 5 10 10 9 8 8 8 8 8 6 6 12 11 13 13 9 16 10 7 9 13 10 6 2 1 6 6 8 7 8 6 6 5 5 5 5 6 4 3 6 10 12 10 14 14 14 14 13 13 13 13 11 10 9 9 11 9 9 10 9 8 8 7 6 6 5 4 6 7 7 7 8 5 4 6 6 6 5 5 5 4 4 5 4
5 7 8 9 9 10 7 8 8 9 7 6 5 16 13 17 16 18 17 11 3 3 6 9 1 7 4 9 6 9 9 9 9 8 7 6 7 9 8 6 4 5 9 12 12 14 15 15 16 16 15 13 13 11 10 9 9 11 10 10 9 8 8 8 7 6 6 7 5 6 6 7 7 8 7 6 6 6 6 5 6 5 5 5 5 5
8 6 8 9 9 7 8 8 9 7 6 6 3 12 16 19 18 20 13 6 3 10 10 8 4 5 1 1 6 8 9 12 14 13 13 11 11 10 9 8 6 6 7 12 12 15 15 15 15 14 14 13 13 12 12 10 10 10 10 10 9 9 9 8 7 7 5 6 6 7 7 7 6 7 7 6 6 6 6 6 4 5 5 4 4 5
4 9 9 9 8 9 7 9 7 6 6 9 5 9 11 14 18 18 10 5 6 7 8 11 8 5 1 1 5 6 7 11 15 15 14 14 13 12 11 6 6 9 4 8 13 14 15 15 15 15 14 13 13 12 11 10 10 10 9 10 11 9 8 8 7 7 6 5 5 6 6 8 6 5 6 6 6 5 5 6 6 5 5 4 3 4
8 5 8 6 8 10 10 8 7 9 11 3 3 3 6 13 7 7 6 2 4 1 8 14 12 7 4 7 9 12 13 17 12 9 11 13 14 14 13 12 7 10 9 6 9 12 15 14 15 14 15 14 13 11 11 10 11 10 10 10 11 11 8 8 8 7 7 6 5 6 6 7 6 5 6 6 5 5 4 6 6 6 6 5 5 4
3 3 2 3 8 6 7 6 8 6 7 5 2 2 5 5 7 6 2 5 3 4 8 12 13 7 7 4 8 13 1 10 15 17 18 18 20 19 16 13 14 14 11 6 9 10 14 13 13 14 14 14 14 13 12 11 11 11 11 11 11 10 8 8 8 7 7 6 6 5 5 6 5 5 5 6 6 5 7 7 7 6 5 5 5 4
4 7 3 5 4 8 6 7 6 4 3 3 3 5 6 2 5 6 5 4 5 6 9 14 10 1 3 4 12 16 8 9 10 12 16 15 11 9 10 12 13 12 9 7 8 11 13 14 14 14 14 14 13 13 14 14 13 13 12 13 13 12 10 9 9 8 8 7 6 6 5 5 4 5 5 5 5 4 6 6 6 6 6 5 5 5
6 3 6 4 3 2 7 7 4 5 3 3 4 5 5 5 7 7 5 2 4 4 2 11 8 2 2 3 6 12 9 9 10 9 9 11 15 15 12 11 11 9 9 7 7 11 11 14 14 14 13 14 14 15 15 14 13 12 12 13 14 13 12 10 9 9 8 8 7 6 6 5 5 5 5 5 5 5 5 6 7 7 7 7 7 6
1 3 5 7 3 2 4 4 6 2 0 5 5 8 6 6 4 4 5 9 8 4 3 8 11 3 4 2 5 13 6 7 9 8 7 8 9 11 10 10 6 4 4 6 6 6 9 11 14 13 12 13 13 14 12 12 12 12 13 13 14 12 11 11 11 9 10 8 7 6 6 6 5 6 6 6 6 6 5 4 6 6 6 6 6 6
1 5 7 7 3 4 5 4 4 2 2 2 2 6 5 5 6 5 7 7 4 8 7 3 0 2 2 3 4 4 6 6 8 7 7 7 7 8 8 9 8 6 4 4 5 5 6 9 2 4 8 9 10 13 9 11 11 11 12 13 14 14 13 12 11 10 10 9 8 7 6 6 5 4 5 6 5 5 6 6 6 5 5 5 5 5
2 2 3 8 4 7 6 3 1 5 2 2 1 2 4 4 6 1 1 3 8 8 2 0 2 3 1 3 8 4 9 8 9 8 8 7 8 8 8 8 7 5 4 6 6 4 11 13 10 10 8 2 9 12 11 11 11 12 11 12 13 12 11 12 12 11 10 9 8 8 7 6 5 5 5 7 6 6 5 5 5 6 5 4 5 5
1 6 7 2 1 4 9 5 3 3 4 1 1 6 4 3 4 5 4 1 3 6 1 2 3 4 2 3 2 2 6 7 9 7 8 7 7 7 4 3 3 5 9 8 6 6 13 14 6 2 5 9 8 9 12 11 11 11 11 12 12 11 12 11 11 11 10 9 9 7 7 6 6 5 5 5 6 5 6 4 4 4 4 5 5 5
1 2 4 1 2 7 1 4 2 2 1 2 2 2 1 1 2 3 4 2 4 2 3 1 2 0 2 2 2 3 6 8 9 9 8 8 6 5 6 7 9 9 10 9 8 8 7 9 11 11 10 8 5 4 7 11 11 10 10 10 11 13 13 13 11 10 9 9 7 6 7 7 5 5 4 3 4 4 6 6 6 5 5 5 4 4
2 1 6 5 6 2 3 4 3 2 5 1 2 4 0 3 2 4 3 4 8 4 5 1 3 3 1 1 3 6 9 10 7 9 10 9 9 7 6 6 8 7 7 6 9 10 9 9 10 10 10 8 6 7 7 9 8 10 10 11 10 8 8 7 8 9 9 8 6 5 4 4 5 5 5 4 4 5 5 6 6 6 5 6 5 5
2 0 1 6 7 4 0 1 5 5 4 2 4 1 1 1 2 2 0 2 6 7 5 7 1 3 2 2 6 5 9 8 1 9 8 9 10 9 9 7 6 7 8 7 7 7 9 7 7 7 4 7 8 4 3 4 8 8 6 8 9 10 9 8 8 8 6 5 3 3 3 4 4 5 5 5 5 5 5 5 5 6 6 5 5 5
2 3 2 4 5 2 1 3 4 5 5 2 2 4 5 1 1 2 4 4 4 7 5 6 2 1 2 2 7 12 9 8 7 11 10 10 10 10 10 11 10 9 7 5 6 4 7 7 5 2 2 2 2 3 2 1 2 3 5 5 5 5 4 0 4 6 10 14 13 11 10 9 8 5 2 6 6 6 6 6 6 6 5 6 7 6
0 1 0 3 2 3 3 5 5 2 5 2 1 3 0 2 4 3 2 1 4 3 6 3 8 2 1 3 3 10 8 7 7 10 11 9 9 10 10 10 10 10 10 9 8 5 4 3 2 2 3 4 3 3 3 2 2 1 3 6 8 7 1 7 12 12 10 10 7 4 1 1 1 2 5 3 1 1 2 5 6 6 7 7 7 6
1 2 4 5 5 6 4 2 8 7 3 4 3 2 4 3 0 3 3 5 6 3 7 3 5 3 2 0 2 10 8 8 8 10 11 9 9 9 9 9 9 10 8 8 7 7 5 5 2 3 4 4 3 2 2 4 4 3 4 6 6 6 4 8 8 7 9 10 10 9 8 4 4 4 1 2 2 1 3 4 2 2 6 7 6 7
3 2 3 2 4 7 7 8 10 9 7 2 2 4 1 1 1 3 7 3 6 2 6 9 7 5 3 4 4 8 9 9 10 10 10 11 8 8 8 6 7 8 8 9 9 8 8 8 6 4 4 4 3 3 5 4 4 3 6 6 7 9 6 8 5 5 5 5 5 4 5 6 5 3 5 6 5 5 4 3 1 2 2 2 4 7
2 2 4 4 3 4 2 3 2 6 6 5 2 7 5 4 4 2 3 2 4 2 7 6 5 6 6 4 4 6 8 8 7 9 7 9 9 9 7 7 7 8 8 8 8 10 10 9 8 8 7 6 6 6 5 5 3 6 9 10 6 6 8 8 6 7 7 7 6 5 5 5 6 7 7 6 6 5 5 4 3 3 2 1 1 4
1 2 4 2 2 3 3 4 5 2 2 4 7 10 8 4 3 7 5 5 5 4 4 1 15 13 10 9 9 8 9 11 10 8 9 9 9 9 7 7 6 7 8 8 7 8 8 9 10 9 8 8 8 7 5 6 6 7 8 9 6 7 9 9 7 7 7 7 6 6 6 5 5 4 3 4 4 2 2 5 6 5 4 3 1 1
3 6 8 4 1 2 6 5 3 0 2 3 10 9 11 10 3 3 5 2 6 11 1 1 14 19 14 12 11 9 8 8 8 9 9 8 8 9 9 8 9 9 8 8 8 10 10 8 8 9 9 10 9 10 9 8 7 6 8 7 3 5 7 8 7 6 6 9 9 8 8 7 5 5 6 6 5 5 4 3 4 5 5 3 3 2
2 3 9 7 8 5 4 3 4 3 4 4 7 10 12 8 8 4 2 8 5 7 9 10 11 15 13 14 12 10 10 9 10 10 9 10 10 10 10 11 11 10 9 9 8 8 10 9 7 8 8 8 9 10 10 9 8 8 7 5 3 5 8 8 8 7 6 5 5 4 4 3 2 3 5 5 4 4 4 3 3 3 3 3 2 0
2 4 5 7 6 7 8 11 5 6 5 11 10 9 10 10 7 3 2 5 6 4 13 17 9 11 9 11 13 12 10 10 9 8 9 10 10 10 11 11 12 11 10 10 9 9 8 8 8 7 8 8 8 8 9 9 9 10 8 7 6 9 8 8 8 7 6 5 3 3 2 1 2 2 1 2 1 2 2 2 3 3 2 1 1 2
4 2 7 7 5 5 10 12 11 8 7 7 10 11 10 9 6 10 9 11 16 15 13 13 12 8 4 4 5 9 9 8 10 11 11 11 11 10 10 12 12 13 11 9 8 8 7 8 7 7 8 7 7 7 7 7 7 8 7 7 7 7 7 7 7 6 6 7 5 4 3 3 3 2 2 2 1 0 1 3 4 3 3 2 2 2
6 2 3 4 5 6 9 12 10 7 7 11 11 11 10 8 5 1 6 4 10 11 13 12 9 5 3 11 8 4 8 10 10 9 8 8 10 10 11 11 12 11 9 8 8 8 9 9 8 7 7 6 5 4 3 3 5 6 6 6 7 7 6 7 7 7 6 6 6 6 4 3 3 3 2 2 2 1 2 2 1 2 2 2 2 1
3 2 4 3 4 4 9 8 8 4 6 9 9 8 6 4 0 0 4 8 15 17 14 12 12 9 13 12 16 10 12 9 8 9 11 10 10 12 11 11 10 10 9 8 8 8 7 6 7 6 5 4 5 4 4 5 6 6 6 7 7 6 6 7 6 7 6 7 6 4 4 2 4 4 3 2 2 1 1 2 1 2 2 1 1 1
3 3 1 1 2 3 9 10 5 4 5 1 5 5 3 5 3 8 6 11 14 12 10 9 11 9 10 10 13 15 13 10 9 5 8 11 11 11 10 10 10 11 11 10 9 9 9 7 4 5 4 6 9 11 10 6 5 3 4 5 6 7 5 6 6 6 7 7 6 4 4 5 4 4 3 3 2 1 1 1 1 1 2 3 1 0
5 4 1 0 2 1 5 6 6 3 1 2 6 7 4 10 10 10 10 6 5 10 17 15 13 9 7 6 6 8 9 8 8 10 8 8 10 10 11 10 10 11 10 9 7 6 6 5 4 4 5 6 6 7 8 6 5 4 3 4 6 6 5 6 6 5 6 6 4 3 4 5 3 2 2 3 2 2 2 2 3 3 3 3 3 2
3 3 3 3 1 1 3 3 3 1 0 5 7 6 6 6 5 10 11 11 6 11 16 15 13 15 16 15 11 9 12 12 11 8 8 8 9 11 11 9 9 9 8 6 6 5 5 6 4 5 4 3 5 6 7 6 5 6 5 4 5 3 3 4 4 3 5 4 3 2 1 1 1 2 2 3 3 3 3 4 4 4 4 3 4 3
3 1 3 1 1 1 1 1 3 3 2 7 4 5 5 2 1 3 5 3 8 2 14 14 14 17 18 15 13 11 11 12 10 6 5 9 9 9 11 10 9 9 7 6 6 7 6 5 5 5 5 6 7 7 6 6 7 7 6 5 4 3 4 4 5 5 4 4 3 3 2 1 0 1 2 2 2 2 2 2 2 3 3 3 4 4
4 4 1 3 1 2 1 2 3 3 0 3 3 6 4 4 3 4 7 3 5 9 6 13 18 17 18 16 14 11 10 13 8 4 4 8 9 11 9 10 8 7 7 6 6 9 8 7 6 8 9 9 9 6 5 7 7 8 7 6 6 6 6 6 5 5 5 4 4 4 5 4 3 2 2 3 2 2 2 2 1 0 0 1 2 4
5 6 6 5 0 4 4 2 1 1 2 3 5 6 8 4 2 3 7 1 1 3 6 7 5 15 18 16 12 12 12 10 6 3 3 7 9 11 12 9 8 7 6 7 9 8 7 7 8 9 10 9 9 7 7 8 8 8 7 5 5 5 6 5 5 5 5 5 6 5 5 5 5 4 3 4 5 5 4 4 2 1 1 2 1 1
5 3 4 4 2 0 2 1 1 2 0 1 3 4 6 8 3 2 1 3 2 3 11 12 14 11 11 13 13 10 11 10 10 9 5 7 10 10 10 9 8 9 9 9 8 8 7 8 10 11 10 8 6 5 6 6 7 7 6 6 6 7 7 6 5 4 5 5 5 5 5 4 5 5 4 5 6 6 6 5 5 5 4 3 3 3
2 2 2 1 1 1 2 2 1 2 3 2 3 5 6 2 3 3 5 2 1 2 8 9 4 7 2 8 8 10 4 7 11 10 10 12 13 9 7 7 8 9 9 8 8 8 9 9 9 8 7 5 5 6 5 6 8 7 6 6 8 7 5 5 6 7 7 6 6 7 6 6 5 6 6 5 5 6 7 6 6 7 6 6 5 5
3 0 2 2 0 2 2 1 4 3 3 2 4 3 4 2 1 2 3 2 2 2 6 10 14 15 11 7 3 5 7 9 12 13 14 13 13 10 9 10 10 9 8 8 9 8 8 8 8 8 8 7 7 7 6 7 7 5 6 7 7 5 5 6 6 6 6 6 6 7 7 8 7 7 6 6 6 7 7 7 6 5 5 5 4 4
2 1 1 0 2 1 2 1 2 1 1 4 5 5 5 3 3 2 0 4 3 3 10 8 13 11 9 9 10 11 13 12 12 13 13 12 12 12 11 10 10 9 8 8 8 7 8 8 8 7 6 6 7 6 6 7 6 5 5 6 5 5 5 5 5 5 5 5 6 5 6 6 7 7 6 6 7 6 7 7 6 6 5 4 4 5
1 1 1 0 0 1 2 1 1 3 3 4 2 1 2 1 4 3 2 4 6 4 3 7 5 8 9 13 13 12 12 12 10 12 12 11 11 11 10 10 9 9 8 7 7 7 7 7 6 6 5 5 5 5 5 6 4 4 4 4 3 4 5 5 5 4 5 5 5 6 6 6 6 6 6 6 6 6 6 7 7 6 6 5 5 6
2 1 4 1 2 1 1 3 5 5 5 3 3 2 1 1 3 3 5 3 5 6 3 6 5 5 11 14 14 15 11 11 12 11 13 11 11 11 11 10 10 9 8 7 7 6 6 7 6 6 5 5 5 4 4 4 4 4 4 3 2 4 3 4 3 3 4 4 5 5 6 6 6 6 5 5 5 5 6 7 7 7 7 6 6 5
1 2 0 2 0 2 1 1 2 4 5 2 3 2 4 4 2 5 7 6 3 5 6 6 5 7 6 10 15 7 11 11 12 11 11 10 10 9 10 10 8 7 7 7 6 6 6 6 6 5 5 4 4 4 3 3 3 3 3 3 3 3 3 3 3 4 4 4 5 6 6 6 7 6 5 5 4 3 3 4 5 6 6 6 6 5
1 2 1 1 1 2 1 6 7 4 3 1 4 3 4 4 3 4 6 4 3 6 8 7 8 6 5 5 9 10 8 9 11 10 9 10 11 10 11 10 8 8 7 7 6 5 6 5 5 4 3 3 2 3 3 4 3 3 4 5 5 4 4 4 4 4 4 6 5 6 6 6 6 6 7 6 6 5 4 4 5 5 5 6 6 6
2 0 2 0 0 1 2 2 5 4 0 3 6 4 4 5 6 5 5 5 5 4 5 6 9 8 7 8 6 9 9 8 11 9 9 9 9 9 9 9 7 6 5 6 5 6 5 5 5 4 3 2 1 2 2 3 4 5 5 5 4 5 5 5 4 4 4 5 5 6 6 5 11 10 7 8 8 8 8 7 6 6 6 6 6 6
2 1 2 1 1 3 2 2 4 4 5 4 6 4 4 6 1 6 5 9 9 7 6 4 4 6 7 10 10 12 10 7 10 9 9 7 8 7 8 8 7 7 6 5 5 6 6 5 5 4 3 2 1 3 4 4 4 5 5 4 4 4 4 3 4 4 4 5 5 5 5 6 5 6 7 6 7 7 6 7 7 7 7 5 4 5
2 3 1 1 1 2 4 2 0 0 2 2 2 3 5 5 6 1 6 6 8 8 7 7 4 4 6 7 9 10 11 8 6 9 9 9 8 8 8 8 7 7 5 6 6 6 5 5 5 4 4 2 2 4 4 3 3 3 3 4 4 5 5 4 4 4 4 4 4 5 5 5 5 5 5 5 6 6 6 7 8 7 6 8 11 14
2 4 3 3 3 4 4 3 2 2 1 4 2 4 2 3 4 7 6 2 2 9 10 8 7 5 5 5 5 8 8 8 8 9 10 7 8 9 9 9 7 6 7 6 5 4 4 4 5 5 4 3 2 2 2 1 1 2 3 4 3 3 3 4 3 4 5 5 5 7 6 6 6 6 6 6 6 6 7 7 5 8 11 11 11 13
Wind_Direction
129 135 189 203 209 217 238 205 213 244 265 319 314 116 170 150 112 121 150 167 152 98 160 160 133 143 154 148 139 129 140 138 150 171 200 222 197 178 171 168 175 169 172 167 165 155 155 155 154 157 158 153 144 145 151 155 158 158 156 150 155 161 151 143 145 147 146 142 133 118 145 146 157 158 157 157 159 163 167 157 153 157 163 169 165 132
91 175 233 213 210 216 234 233 232 255 264 270 281 265 157 162 185 169 156 168 161 143 145 104 132 142 147 138 136 126 148 158 173 178 200 194 190 179 176 168 168 168 161 168 158 148 151 151 153 154 155 143 147 151 153 158 161 160 154 153 156 155 151 147 156 161 142 145 162 153 169 148 151 159 162 164 163 166 163 157 152 158 164 168 162 145
164 210 231 221 219 223 240 252 246 233 250 242 231 256 125 168 84 91 137 159 160 65 140 144 129 131 136 134 130 162 160 162 144 163 163 203 179 180 176 167 161 157 163 167 161 147 151 151 154 155 154 156 152 154 156 157 155 156 153 150 154 159 151 149 158 157 148 138 155 151 165 150 157 185 174 166 153 157 154 162 155 155 159 159 152 163
191 257 237 226 217 218 242 247 257 261 236 233 251 92 162 150 143 161 169 163 127 150 170 144 112 95 57 91 116 110 79 109 127 88 36 333 271 181 181 170 164 158 164 168 164 152 152 153 156 155 155 157 152 152 153 157 156 156 152 153 152 158 151 147 167 172 164 154 165 170 154 161 153 173 168 144 120 133 141 162 159 156 155 165 163 173
207 226 214 217 216 205 225 239 242 244 254 243 222 169 150 170 178 156 170 153 86 59 121 103 75 37 56 131 131 176 127 98 117 129 119 294 302 298 329 186 171 162 169 166 163 151 153 157 159 160 158 154 156 159 159 160 161 160 159 157 155 157 160 159 170 183 177 171 145 165 130 123 96 84 123 120 130 155 168 157 173 182 168 170 179 179
244 248 200 210 224 214 217 236 232 199 235 262 223 175 180 167 58 111 145 148 109 122 201 147 73 292 226 204 184 163 140 160 141 153 199 196 259 304 272 223 180 189 169 168 165 157 159 159 157 157 156 157 160 163 163 160 160 155 160 156 153 156 163 171 178 185 173 186 168 148 144 148 153 160 154 166 172 171 172 186 190 178 178 178 184 188
221 242 195 207 218 225 220 229 229 176 211 208 247 181 153 124 136 165 158 137 146 172 196 229 112 218 354 225 191 175 170 173 154 181 181 194 214 245 259 241 198 194 173 167 161 155 159 160 157 162 162 161 163 166 158 157 157 155 157 158 157 160 169 178 186 187 168 185 176 164 167 163 166 168 197 177 170 171 184 171 181 191 187 186 184 190
216 226 218 215 216 219 220 232 239 176 171 224 236 169 148 145 159 175 173 169 113 59 144 201 95 133 199 236 194 178 177 174 180 186 185 201 215 219 242 241 222 217 181 167 163 163 162 163 163 167 164 163 164 161 158 155 157 159 159 161 163 164 172 184 184 193 180 180 175 166 170 170 170 173 185 181 177 178 170 174 188 183 193 191 190 185
217 217 212 209 214 211 219 219 236 163 176 221 217 157 160 159 169 175 176 155 148 126 169 213 128 68 251 264 136 162 178 192 200 188 186 193 199 205 231 251 234 235 203 171 166 169 166 166 167 164 166 165 157 159 164 159 164 162 160 163 164 167 173 187 184 185 190 179 173 170 165 166 179 176 179 181 177 177 172 176 184 186 197 193 190 184
254 214 209 195 195 219 223 230 224 179 211 242 183 126 172 171 166 174 172 150 145 106 183 208 175 116 243 206 139 181 201 204 201 191 189 189 191 196 207 242 320 299 252 187 172 170 170 168 167 166 162 162 164 163 163 156 158 160 157 163 166 172 176 184 182 181 185 180 162 165 169 160 169 172 170 168 177 173 170 181 181 190 195 193 189 190
247 260 207 181 198 210 216 227 213 213 216 226 112 148 122 157 188 162 156 126 38 95 211 201 192 137 170 207 192 176 211 197 181 187 195 189 190 196 196 191 179 251 255 200 180 172 173 169 164 161 165 167 165 164 159 157 161 164 164 164 172 177 175 176 178 175 181 179 167 164 174 167 165 174 161 162 177 160 158 182 184 181 196 183 187 183
246 288 239 218 170 206 204 224 230 214 228 202 176 149 95 51 130 78 351 246 123 247 235 206 193 161 147 235 220 227 7 176 178 189 188 192 192 190 190 183 184 210 233 201 171 174 170 168 165 164 166 167 168 166 165 160 164 169 171 168 173 178 178 173 173 174 177 178 175 159 164 177 172 168 168 175 181 172 170 179 179 180 176 187 179 185
301 262 233 262 171 161 203 213 265 243 252 162 143 70 130 173 141 166 203 192 203 194 225 204 175 255 279 229 214 196 201 180 190 191 192 185 187 191 186 182 186 201 202 182 172 173 171 171 169 169 168 168 167 172 174 168 170 172 173 173 172 182 180 178 173 176 176 178 181 169 167 175 177 172 176 183 180 174 167 172 165 165 178 175 174 190
283 243 228 238 232 188 111 163 222 256 249 112 161 134 122 145 169 181 208 180 220 269 137 143 157 213 277 292 176 185 185 178 181 194 191 179 182 187 185 184 186 190 183 168 168 172 175 175 173 170 168 171 173 177 178 173 172 173 176 178 178 181 182 178 177 176 175 183 185 181 173 176 172 185 181 189 185 180 172 170 166 170 174 176 186 184
198 251 275 172 215 207 116 155 170 159 211 212 147 151 173 144 156 185 177 175 193 182 116 111 154 241 153 251 309 163 151 161 171 176 175 179 186 184 177 180 186 191 180 164 153 154 165 179 176 172 169 172 175 177 175 175 175 174 177 179 182 179 181 178 181 178 178 182 184 186 184 183 171 182 183 192 189 177 168 180 168 179 173 174 192 189
227 230 243 201 195 196 187 172 140 94 26 280 165 88 113 218 136 161 192 149 162 113 104 347 1 326 166 264 330 66 120 143 158 158 151 165 157 163 171 184 193 194 179 149 100 81 64 34 42 168 161 152 163 169 168 169 170 178 181 182 183 181 181 181 181 184 181 182 182 183 187 194 185 183 178 180 181 185 176 173 172 185 189 190 179 198
2 310 307 328 278 157 227 136 141 122 158 269 111 182 207 181 115 113 185 119 97 73 42 5 63 4 270 349 10 47 128 145 150 147 151 154 157 161 177 182 195 199 187 103 97 126 69 57 45 63 51 80 171 165 164 163 172 180 181 184 186 185 180 181 184 184 182 180 178 187 188 191 191 185 181 176 177 181 188 176 176 176 195 200 182 184
116 260 298 318 259 236 210 130 140 138 156 132 85 243 278 129 117 124 179 352 86 108 140 58 148 166 132 197 335 346 98 115 121 129 134 141 150 167 164 157 125 70 46 93 124 72 92 111 109 73 133 163 187 185 165 166 173 180 180 184 184 184 184 187 183 182 182 180 182 182 188 190 191 190 194 178 174 174 174 192 186 171 181 205 202 188
135 3 292 236 241 257 309 81 47 322 62 139 195 230 133 259 256 311 103 152 93 71 107 11 302 126 353 202 149 184 115 110 106 104 102 96 83 81 74 67 68 58 60 54 82 89 105 128 154 175 190 185 168 165 189 173 177 173 178 183 184 187 189 185 183 182 182 180 182 182 186 186 188 187 191 191 180 166 173 188 191 191 196 205 212 205
52 130 300 330 328 216 32 86 189 277 321 15 51 2 217 111 164 152 206 162 111 158 115 208 23 189 277 235 177 77 40 359 16 63 64 64 74 70 66 71 71 70 81 102 126 157 166 161 178 179 176 166 168 188 199 193 180 176 176 177 183 188 187 183 186 176 176 177 176 176 171 182 185 187 186 191 184 178 182 190 190 199 199 204 204 207
57 356 342 292 315 126 41 61 176 163 167 311 33 316 346 23 214 119 25 124 147 152 156 138 139 274 306 222 111 103 108 121 108 87 74 75 74 66 61 59 82 110 120 137 160 168 145 144 166 184 162 171 177 157 150 210 192 176 157 171 179 179 181 183 183 174 169 150 147 143 170 188 186 191 194 198 189 193 193 189 192 196 202 198 205 195
36 14 7 310 12 37 235 215 175 149 138 133 155 218 170 139 24 135 258 350 77 114 155 146 180 297 331 356 140 131 137 127 116 107 94 86 82 74 69 60 54 59 64 103 140 124 115 135 148 109 82 99 88 107 135 220 173 153 134 98 65 43 27 76 43 48 53 51 34 27 27 22 9 345 284 205 196 203 206 204 196 196 189 196 210 191
149 146 12 336 260 275 259 298 280 125 127 152 146 298 212 138 120 98 133 281 53 42 93 112 116 94 0 315 128 125 123 113 112 104 98 91 83 81 78 73 65 58 61 60 68 77 97 103 98 95 81 79 86 106 126 124 144 94 69 68 71 66 4 70 66 71 85 105 138 184 135 100 55 61 26 349 89 132 223 221 213 199 195 198 201 204
320 43 355 313 304 274 326 12 29 24 64 26 356 28 34 355 172 169 171 174 112 129 99 57 71 121 282 276 134 115 115 114 106 101 106 94 84 81 80 80 76 71 60 61 63 62 76 124 94 72 72 62 55 81 113 74 69 91 89 111 123 151 198 85 98 122 134 144 163 160 152 169 169 151 220 296 308 348 354 349 323 246 213 200 202 202
42 319 115 347 3 344 347 0 2 348 39 70 293 299 315 310 65 130 100 56 88 235 160 130 151 165 182 171 139 126 126 128 120 113 111 105 96 92 88 78 79 77 69 63 60 63 67 66 64 65 67 40 32 46 81 93 114 92 93 96 128 176 143 115 141 128 108 95 91 101 146 164 168 195 201 213 228 237 214 190 196 1 6 290 229 206
84 289 60 73 91 67 41 41 349 308 308 285 325 345 349 39 350 43 72 30 98 218 115 111 79 95 135 161 160 143 134 119 113 109 98 109 111 104 95 88 79 74 69 66 63 62 61 59 52 52 47 42 42 58 72 71 62 103 115 120 142 119 111 115 154 143 140 141 138 141 145 177 187 194 210 210 216 232 232 221 224 193 201 123 255 252
79 351 78 118 145 169 201 217 247 191 332 42 323 20 0 19 39 85 104 103 140 156 64 186 141 146 160 173 167 163 149 135 128 119 116 110 104 102 101 95 85 78 70 65 70 73 67 57 52 49 47 43 36 36 49 86 93 93 112 127 159 146 143 157 162 148 137 145 163 170 190 202 201 177 182 217 221 217 235 221 215 220 215 187 180 215
56 41 354 357 144 214 206 213 269 332 43 13 36 2 13 13 11 96 105 169 157 97 338 310 158 145 168 161 165 160 145 134 130 126 122 113 111 111 112 103 90 79 71 66 64 68 69 62 51 49 51 40 39 42 35 40 56 62 87 117 135 122 132 139 133 135 140 154 175 191 198 198 187 184 189 202 201 197 213 228 235 235 232 215 203 262
110 57 340 346 338 353 346 335 328 22 43 54 46 30 13 349 28 64 106 147 134 146 177 172 173 144 161 163 161 154 148 145 142 135 129 123 118 119 116 108 99 89 80 74 70 70 76 73 63 57 52 55 44 44 43 40 46 56 45 47 48 87 100 114 114 112 111 125 144 166 173 167 159 179 190 185 191 204 217 232 245 247 260 263 255 330
82 32 338 343 323 359 358 0 350 45 27 47 38 24 17 9 15 69 108 157 155 164 148 152 163 140 146 161 155 154 148 144 136 124 127 130 130 126 119 114 108 101 94 85 78 76 81 87 82 70 64 51 54 50 48 47 48 47 40 20 55 71 75 91 95 103 103 96 86 84 89 126 153 158 122 123 213 230 220 228 232 229 249 285 285 286
93 333 10 7 19 350 359 1 8 4 43 47 31 25 13 14 40 67 86 78 78 76 112 117 121 115 333 26 116 137 137 128 129 142 143 141 139 130 121 116 112 110 107 104 95 87 92 94 90 88 81 68 57 53 59 67 62 61 59 65 59 71 76 80 89 89 92 91 84 69 46 52 57 64 81 100 107 110 232 225 211 201 201 207 238 252
42 343 48 27 43 336 358 357 350 1 63 53 26 14 2 12 31 31 95 146 113 132 126 119 118 142 148 97 53 102 127 137 144 140 137 137 128 124 120 117 114 109 103 103 113 116 105 97 97 99 107 104 95 103 93 72 77 78 64 57 79 81 79 75 73 71 66 66 65 66 64 69 66 54 51 57 53 14 341 316 283 262 242 238 217 217
353 44 51 24 51 308 321 337 341 4 37 28 355 332 322 13 40 206 91 130 135 135 132 149 183 159 152 147 145 161 148 142 130 133 127 120 116 112 109 108 106 105 104 95 77 66 67 82 80 72 83 117 128 113 87 63 50 57 59 68 62 63 68 71 72 72 62 59 58 54 56 37 57 48 17 52 75 43 28 1 313 297 287 260 226 183
7 69 79 135 103 256 317 327 0 47 58 49 267 297 349 48 59 103 121 140 149 148 170 163 139 132 140 150 154 153 148 143 136 130 129 129 120 110 106 107 107 103 96 88 82 77 79 77 68 63 62 69 81 88 64 57 76 65 60 82 92 82 70 76 72 70 65 56 57 35 25 16 27 53 8 335 18 30 25 23 5 312 314 323 318 309
15 10 32 312 94 305 321 4 39 29 217 245 308 301 21 55 48 64 50 30 74 79 92 91 101 111 107 82 90 102 101 99 103 113 107 111 113 111 112 108 102 101 102 105 103 97 103 110 104 87 62 55 72 110 136 140 122 123 110 89 78 76 79 74 65 76 87 90 86 47 39 48 27 5 330 311 7 30 19 9 3 8 1 352 353 2
12 24 321 17 45 30 34 29 91 227 270 331 298 322 324 42 30 55 31 11 31 97 113 118 120 112 105 106 102 98 101 98 89 81 98 104 114 120 117 115 112 109 105 103 99 85 92 107 96 80 57 29 50 59 68 72 75 75 78 75 63 62 77 88 95 62 64 67 76 97 116 121 335 331 352 340 352 14 17 16 21 28 7 7 349 353
106 86 63 352 9 113 194 119 208 294 355 356 5 354 350 11 14 118 115 1 356 76 123 124 120 120 119 118 115 110 105 97 89 77 99 117 117 117 118 116 114 109 106 96 81 73 84 102 83 57 53 49 47 56 63 65 63 62 61 68 82 78 62 66 60 57 49 37 8 355 339 319 249 308 332 341 355 349 347 5 7 1 351 4 5 351
95 89 198 97 309 98 102 22 0 22 275 278 250 273 305 291 297 137 100 64 6 1 342 131 135 131 127 125 123 120 116 104 105 125 139 116 114 110 103 108 106 101 96 87 64 70 74 69 62 53 59 56 50 40 57 66 64 60 55 50 47 51 45 41 35 31 32 25 21 11 3 353 351 322 309 327 329 304 286 276 227 217 295 327 341 336
27 90 99 103 310 33 34 104 214 147 247 213 267 287 301 320 337 112 66 55 260 108 21 334 109 136 135 130 126 121 115 115 132 183 199 121 108 112 112 109 109 108 97 84 84 79 69 64 64 63 56 53 48 28 36 46 58 62 58 48 45 48 46 37 25 20 20 11 6 6 0 357 358 8 360 345 331 318 303 287 267 228 227 237 241 275
35 359 31 27 28 75 118 77 297 200 199 281 256 286 297 310 0 59 76 250 229 170 156 175 163 161 137 132 135 127 136 146 159 172 170 121 112 111 115 117 104 91 88 89 81 83 78 66 64 58 56 53 37 29 39 45 50 50 52 47 47 43 31 18 7 3 10 9 3 352 353 354 356 356 5 357 346 340 330 314 315 312 311 300 299 313
0 339 67 184 166 331 80 263 350 317 288 270 308 293 313 315 74 117 192 233 229 228 147 116 54 351 51 121 137 140 189 146 146 143 128 116 108 104 101 96 99 98 94 87 83 77 70 65 71 73 69 57 43 36 37 47 58 53 43 42 41 30 12 1 5 6 1 357 355 350 348 348 357 352 352 356 343 335 333 336 327 324 327 320 325 323
347 35 317 48 59 233 213 150 222 237 243 280 269 309 310 359 308 201 240 272 273 230 173 154 147 155 152 141 108 105 127 122 125 124 120 118 119 120 109 104 95 85 84 86 84 78 73 72 67 63 53 46 46 46 49 61 64 54 44 40 28 1 355 10 9 4 3 359 353 350 348 347 342 346 343 337 341 339 330 326 329 320 319 312 304 288
222 88 238 177 276 27 26 104 344 340 298 350 325 349 21 96 226 217 271 339 342 217 153 161 146 158 140 124 121 119 121 125 127 122 118 118 116 113 111 106 101 99 90 82 73 70 80 77 71 65 62 49 50 46 48 63 66 54 45 34 359 341 359 357 360 359 354 346 349 344 339 334 332 328 330 326 328 330 323 321 327 326 326 317 301 288
228 74 287 334 170 147 36 73 194 218 248 293 68 147 301 164 189 176 129 38 7 32 93 126 133 143 128 122 122 119 121 116 112 117 112 110 109 106 105 104 101 97 90 84 85 83 80 82 78 73 59 56 52 49 49 60 63 57 48 11 321 349 353 350 344 346 344 340 336 331 329 326 322 317 314 314 319 324 319 320 322 319 317 313 308 303
281 193 173 144 260 113 217 213 240 236 217 258 133 158 185 10 87 132 93 93 75 28 5 95 94 103 130 129 128 129 124 128 130 128 123 125 121 117 114 115 114 110 105 98 94 87 85 87 84 74 60 50 53 48 48 52 61 48 28 322 323 340 346 325 342 353 353 344 336 335 326 326 321 319 323 326 333 329 327 321 325 327 326 330 324 324
298 281 140 86 279 300 205 199 275 358 339 332 24 101 114 75 60 93 102 86 45 84 83 83 87 104 104 125 123 120 129 138 130 129 125 124 117 113 110 108 105 106 104 102 95 94 95 87 79 74 68 46 38 43 36 30 56 49 329 308 320 329 334 340 4 4 2 350 344 336 336 337 332 341 355 352 355 350 334 340 340 339 337 349 348 349
327 3 61 90 286 53 281 332 11 320 296 297 96 42 51 68 86 115 99 104 145 113 96 90 99 85 89 76 108 120 121 126 122 124 124 123 122 122 120 118 121 122 122 118 126 109 94 95 90 86 83 68 357 10 9 14 358 345 325 334 335 344 344 7 12 10 0 350 340 339 341 348 337 350 349 348 347 350 355 356 352 343 342 344 341 339
327 16 54 191 165 142 230 276 293 277 306 2 15 26 26 40 63 62 108 120 117 89 97 124 116 105 106 100 101 105 113 122 123 127 127 128 127 126 124 126 126 121 133 137 129 115 112 115 124 126 117 107 345 356 7 5 6 2 5 0 7 10 16 12 357 358 348 339 340 339 341 349 352 354 346 346 347 347 346 345 347 348 341 338 335 334
184 43 263 193 255 278 312 291 307 335 47 360 18 18 35 355 6 99 109 118 114 104 97 74 100 137 131 136 136 126 126 137 134 134 131 130 128 128 134 138 140 143 144 132 129 129 142 147 147 153 143 131 132 75 42 33 22 12 11 359 6 12 16 1 355 349 344 339 347 342 340 347 344 343 341 336 339 333 330 327 332 331 323 315 313 318
40 280 234 88 325 313 228 248 168 200 257 311 326 1 339 2 359 61 121 115 119 124 126 116 101 121 131 144 144 139 144 154 148 136 135 141 145 146 147 146 150 146 145 145 140 150 156 158 151 141 112 113 105 89 79 56 23 7 358 351 358 4 3 355 350 354 346 337 342 330 333 331 326 319 318 318 313 315 311 306 303 299 304 311 315 314
173 215 135 161 166 241 254 227 192 151 210 230 228 293 325 347 27 38 14 346 185 157 148 138 140 141 142 151 145 141 144 143 146 135 134 143 156 160 157 151 141 129 138 140 137 148 122 97 93 99 103 110 99 87 100 80 38 359 331 338 343 7 7 9 2 1 350 347 339 329 328 321 313 312 309 310 310 308 311 310 300 274 277 276 283 292